Location: Les Chemineaux
(47.3024°N, 1.5104°E)
Time: 20:16:10
(UTC+00:00)

Cosmos 1570 Rocket - Pass Details

Date: 19 May 2025
Orbit: 759 x 785 km, 74.1° (Epoch: 21 June)

Event Time Altitude Azimuth Distance (km) Brightness Sun altitude
Exits shadow 21:19:37 - 198° (SSW) 2,726 6.5 -14.7°
Reaches altitude 10° 21:20:43 10° 198° (SSW) 2,295 6.1 -14.8°
Maximum altitude 21:25:56 84° 111° (ESE) 778 3.9 -15.3°
Drops below altitude 10° 21:31:14 10° 23° (NNE) 2,328 6.9 -15.8°
Sets 21:33:38 0° 23° (NNE) 3,264 7.7 -16.0°
